Location: Unspecified
(32.9673°N, 0.0000°E)
Time: 18:19:02
(UTC+00:00)

Meteor 2-12 Rocket - Visible Passes

Search period start: 04 April 2026 00:00
Search period end: 14 April 2026 00:00
Orbit: 935 x 957 km, 82.5° (Epoch: 28 March)

Date Brightness Start Highest point End Pass type
(mag) Time Alt. Az. Time Alt. Az. Time Alt. Az.
4 Apr 7.2 00:52:38 10° NNE 00:52:44 10° NNE 00:52:44 10° NNE visible
5 Apr 7.1 01:08:52 10° N 01:09:09 11° N 01:09:09 11° N visible
6 Apr 7.1 01:25:22 10° N 01:25:35 11° N 01:25:35 11° N visible
9 Apr 7.2 00:30:32 10° N 00:30:52 12° N 00:30:52 12° N visible
10 Apr 7.1 00:46:56 10° N 00:47:20 12° N 00:47:20 12° N visible
11 Apr 7.1 01:03:34 10° NNW 01:03:48 11° NNW 01:03:48 11° NNW visible
12 Apr 7.1 23:52:16 10° N 23:52:44 12° NNE 23:52:44 12° NNE visible
